| time (UTC) | temp F | wind direction | speed knots | gust knots | rain 1hr in | rain 24hr in | rain mn in | humidity % | barometer mb |
| 20260508025125 | 52 | 333 | 0.0 | 4.3 | 0.00 | 0.05 | 0.03 | 45 | 1006.6 |
| 20260508024625 | 52 | 332 | 0.9 | 4.3 | 0.00 | 0.05 | 0.03 | 45 | 1006.5 |
| 20260508024125 | 52 | 5 | 0.9 | 7.8 | 0.00 | 0.05 | 0.03 | 45 | 1006.5 |
| 20260508023625 | 52 | 317 | 0.9 | 7.8 | 0.00 | 0.05 | 0.03 | 44 | 1006.5 |
| 20260508023350 | 52 | 355 | 0.9 | 7.8 | 0.00 | 0.05 | 0.03 | 44 | 1006.5 |
| 20260508022623 | 53 | 333 | 0.9 | 7.8 | 0.00 | 0.05 | 0.03 | 44 | 1006.3 |
| 20260508022116 | 53 | 0 | 0.9 | 2.6 | 0.00 | 0.05 | 0.03 | 44 | 1006.2 |
| 20260508021843 | 53 | 0 | 0.9 | 5.2 | 0.00 | 0.05 | 0.03 | 44 | 1006.2 |
| 20260508021105 | 54 | 0 | 1.7 | 8.7 | 0.00 | 0.05 | 0.03 | 43 | 1006.1 |
| 20260508020559 | 54 | 341 | 0.9 | 8.7 | 0.00 | 0.05 | 0.03 | 42 | 1006.1 |
| 20260508020053 | 54 | 26 | 0.9 | 5.2 | 0.00 | 0.05 | 0.03 | 41 | 1006.0 |
| 20260508015546 | 54 | 347 | 1.7 | 7.0 | 0.00 | 0.05 | 0.03 | 40 | 1005.9 |
| 20260508015041 | 55 | 350 | 1.7 | 7.0 | 0.00 | 0.05 | 0.03 | 40 | 1005.8 |
| 20260508014534 | 55 | 355 | 1.7 | 7.0 | 0.00 | 0.05 | 0.03 | 39 | 1005.8 |
| 20260508014028 | 55 | 26 | 2.6 | 8.7 | 0.00 | 0.05 | 0.03 | 40 | 1005.7 |
| 20260508013748 | 55 | 329 | 3.5 | 8.7 | 0.00 | 0.05 | 0.03 | 39 | 1005.6 |
| 20260508013243 | 55 | 336 | 2.6 | 8.7 | 0.00 | 0.05 | 0.03 | 39 | 1005.6 |
| 20260508012510 | 55 | 333 | 1.7 | 5.2 | 0.00 | 0.05 | 0.03 | 39 | 1005.5 |
| 20260508012003 | 56 | 344 | 1.7 | 7.0 | 0.00 | 0.05 | 0.03 | 40 | 1005.4 |
| 20260508011456 | 56 | 321 | 0.9 | 7.0 | 0.00 | 0.05 | 0.03 | 40 | 1005.3 |
| 20260508010951 | 55 | 329 | 0.9 | 5.2 | 0.00 | 0.05 | 0.03 | 40 | 1005.4 |
| 20260508010924 | 55 | 301 | 0.9 | 4.3 | 0.00 | 0.05 | 0.03 | 41 | 1005.3 |
| 20260508005938 | 55 | 318 | 0.9 | 4.3 | 0.00 | 0.05 | 0.03 | 41 | 1005.2 |
| 20260508005656 | 55 | 275 | 0.0 | 2.6 | 0.00 | 0.05 | 0.03 | 44 | 1005.2 |
| 20260508004926 | 55 | 271 | 0.0 | 1.7 | 0.00 | 0.05 | 0.03 | 48 | 1005.2 |
| 20260508004420 | 55 | 271 | 0.0 | 0.0 | 0.00 | 0.05 | 0.03 | 50 | 1005.2 |
| 20260508003914 | 56 | 271 | 0.0 | 0.0 | 0.00 | 0.06 | 0.03 | 48 | 1005.0 |
| 20260508003408 | 56 | 271 | 0.0 | 0.0 | 0.00 | 0.06 | 0.03 | 44 | 1004.9 |
| 20260508003126 | 56 | 271 | 0.0 | 1.7 | 0.00 | 0.06 | 0.03 | 44 | 1004.8 |
| 20260508002357 | 56 | 271 | 0.0 | 1.7 | 0.00 | 0.06 | 0.03 | 42 | 1004.7 |
| 20260508001851 | 57 | 271 | 0.0 | 0.9 | 0.00 | 0.06 | 0.03 | 41 | 1004.5 |
| 20260508001344 | 57 | 271 | 0.0 | 0.9 | 0.00 | 0.06 | 0.03 | 41 | 1004.5 |
| 20260508000840 | 57 | 270 | 0.0 | 0.9 | 0.00 | 0.06 | 0.03 | 40 | 1004.4 |
| 20260508000334 | 57 | 270 | 0.0 | 0.9 | 0.00 | 0.06 | 0.03 | 39 | 1004.4 |
| 20260507235826 | 58 | 270 | 0.0 | 2.6 | 0.00 | 0.06 | 0.03 | 39 | 1004.4 |
| 20260507235546 | 58 | 269 | 0.0 | 2.6 | 0.00 | 0.06 | 0.03 | 38 | 1004.3 |
| 20260507234814 | 58 | 270 | 0.0 | 3.5 | 0.00 | 0.06 | 0.03 | 38 | 1004.3 |
| 20260507234307 | 58 | 270 | 0.9 | 7.0 | 0.00 | 0.06 | 0.03 | 37 | 1004.2 |
| 20260507233806 | 58 | 253 | 1.7 | 7.0 | 0.00 | 0.06 | 0.03 | 36 | 1004.2 |
| 20260507233753 | 59 | 263 | 1.7 | 7.8 | 0.00 | 0.06 | 0.03 | 36 | 1004.2 |
| 20260507232807 | 59 | 294 | 2.6 | 9.6 | 0.00 | 0.06 | 0.03 | 36 | 1004.2 |
| 20260507232306 | 59 | 298 | 1.7 | 9.6 | 0.00 | 0.06 | 0.03 | 35 | 1004.2 |
| 20260507232023 | 59 | 289 | 1.7 | 7.8 | 0.00 | 0.06 | 0.03 | 36 | 1004.2 |
| 20260507231303 | 60 | 287 | 2.6 | 9.6 | 0.00 | 0.06 | 0.03 | 36 | 1004.0 |
| 20260507230801 | 60 | 324 | 2.6 | 9.6 | 0.00 | 0.06 | 0.03 | 35 | 1004.0 |
| 20260507230302 | 60 | 227 | 2.6 | 8.7 | 0.00 | 0.06 | 0.03 | 36 | 1003.9 |
| 20260507225801 | 60 | 276 | 3.5 | 9.6 | 0.00 | 0.07 | 0.03 | 35 | 1003.8 |
| 20260507225305 | 60 | 270 | 4.3 | 10.4 | 0.00 | 0.07 | 0.03 | 35 | 1003.8 |
| 20260507224801 | 61 | 315 | 3.5 | 10.4 | 0.00 | 0.07 | 0.03 | 34 | 1003.7 |
| 20260507224301 | 61 | 234 | 3.5 | 12.2 | 0.00 | 0.07 | 0.03 | 35 | 1003.6 |
| 20260507223800 | 61 | 300 | 3.5 | 12.2 | 0.00 | 0.07 | 0.03 | 34 | 1003.5 |
| 20260507223754 | 62 | 274 | 3.5 | 8.7 | 0.00 | 0.07 | 0.03 | 33 | 1003.5 |
| 20260507222801 | 62 | 244 | 3.5 | 8.7 | 0.00 | 0.07 | 0.03 | 33 | 1003.5 |
| 20260507222301 | 62 | 319 | 4.3 | 13.0 | 0.00 | 0.08 | 0.03 | 33 | 1003.5 |
| 20260507221800 | 63 | 248 | 5.2 | 13.0 | 0.00 | 0.08 | 0.03 | 32 | 1003.4 |
| 20260507221254 | 63 | 250 | 5.2 | 13.0 | 0.00 | 0.08 | 0.03 | 32 | 1003.3 |
| 20260507220748 | 63 | 255 | 5.2 | 13.0 | 0.00 | 0.08 | 0.03 | 31 | 1003.2 |
| 20260507220242 | 63 | 238 | 3.5 | 9.6 | 0.00 | 0.09 | 0.03 | 33 | 1003.2 |
| 20260507215736 | 63 | 285 | 3.5 | 11.3 | 0.00 | 0.10 | 0.03 | 33 | 1003.2 |
| 20260507215451 | 64 | 254 | 3.5 | 11.3 | 0.00 | 0.11 | 0.03 | 31 | 1003.2 |
| 20260507214944 | 64 | 273 | 3.5 | 11.3 | 0.00 | 0.12 | 0.03 | 32 | 1003.3 |
| 20260507214219 | 64 | 305 | 5.2 | 11.3 | 0.00 | 0.13 | 0.03 | 31 | 1003.3 |
| 20260507213712 | 64 | 338 | 5.2 | 12.2 | 0.00 | 0.13 | 0.03 | 32 | 1003.3 |
| 20260507213427 | 64 | 307 | 5.2 | 12.2 | 0.00 | 0.14 | 0.03 | 32 | 1003.2 |
| 20260507212917 | 65 | 279 | 5.2 | 12.2 | 0.00 | 0.15 | 0.03 | 31 | 1003.2 |
| 20260507212155 | 65 | 286 | 5.2 | 11.3 | 0.00 | 0.15 | 0.03 | 32 | 1003.1 |
| 20260507211648 | 65 | 285 | 4.3 | 10.4 | 0.00 | 0.16 | 0.03 | 32 | 1003.1 |
| 20260507211142 | 65 | 265 | 3.5 | 12.2 | 0.00 | 0.17 | 0.03 | 32 | 1003.1 |
| 20260507210637 | 65 | 228 | 3.5 | 12.2 | 0.00 | 0.18 | 0.03 | 32 | 1003.1 |
| 20260507210130 | 65 | 286 | 4.3 | 11.3 | 0.00 | 0.19 | 0.03 | 33 | 1003.1 |
| 20260507205624 | 65 | 232 | 5.2 | 11.3 | 0.00 | 0.19 | 0.03 | 33 | 1003.1 |
| 20260507205119 | 65 | 246 | 4.3 | 11.3 | 0.00 | 0.20 | 0.03 | 33 | 1003.0 |
| 20260507204613 | 65 | 332 | 5.2 | 11.3 | 0.00 | 0.20 | 0.03 | 34 | 1002.9 |
| 20260507204330 | 65 | 227 | 3.5 | 11.3 | 0.00 | 0.21 | 0.03 | 35 | 1002.9 |
| 20260507203600 | 64 | 252 | 3.5 | 12.2 | 0.00 | 0.21 | 0.03 | 33 | 1002.8 |
| 20260507203055 | 64 | 281 | 5.2 | 12.2 | 0.00 | 0.22 | 0.03 | 32 | 1002.9 |
| 20260507202811 | 64 | 289 | 5.2 | 13.0 | 0.00 | 0.22 | 0.03 | 33 | 1003.0 |
| 20260507202042 | 65 | 266 | 5.2 | 13.0 | 0.00 | 0.22 | 0.03 | 32 | 1003.0 |
| 20260507201536 | 65 | 298 | 5.2 | 12.2 | 0.00 | 0.22 | 0.03 | 31 | 1003.0 |
| 20260507201030 | 66 | 231 | 5.2 | 11.3 | 0.00 | 0.22 | 0.03 | 30 | 1003.0 |
| 20260507200524 | 66 | 283 | 5.2 | 11.3 | 0.00 | 0.22 | 0.03 | 33 | 1002.9 |
| 20260507200019 | 66 | 329 | 4.3 | 10.4 | 0.00 | 0.23 | 0.03 | 32 | 1002.9 |
| 20260507195512 | 66 | 248 | 5.2 | 16.5 | 0.00 | 0.23 | 0.03 | 35 | 1003.0 |
| 20260507195237 | 65 | 272 | 7.0 | 16.5 | 0.00 | 0.24 | 0.03 | 33 | 1003.1 |
| 20260507194500 | 65 | 344 | 6.1 | 13.0 | 0.00 | 0.24 | 0.03 | 33 | 1003.1 |
| 20260507193955 | 65 | 259 | 4.3 | 10.4 | 0.00 | 0.24 | 0.03 | 34 | 1003.0 |
| 20260507193449 | 65 | 326 | 4.3 | 13.0 | 0.00 | 0.24 | 0.03 | 33 | 1002.9 |
| 20260507192942 | 65 | 219 | 5.2 | 13.0 | 0.00 | 0.24 | 0.03 | 32 | 1003.0 |
| 20260507192436 | 65 | 307 | 4.3 | 10.4 | 0.00 | 0.24 | 0.03 | 31 | 1003.2 |
| 20260507191930 | 66 | 286 | 4.3 | 11.3 | 0.00 | 0.24 | 0.03 | 30 | 1003.2 |
| 20260507191424 | 65 | 279 | 4.3 | 11.3 | 0.00 | 0.24 | 0.03 | 32 | 1003.1 |
| 20260507190918 | 65 | 295 | 5.2 | 11.3 | 0.00 | 0.24 | 0.03 | 32 | 1003.2 |
| 20260507190412 | 65 | 300 | 6.1 | 13.9 | 0.00 | 0.24 | 0.03 | 31 | 1003.2 |
| 20260507185906 | 65 | 323 | 6.1 | 13.9 | 0.00 | 0.24 | 0.03 | 33 | 1003.2 |
| 20260507185400 | 65 | 259 | 4.3 | 13.0 | 0.00 | 0.24 | 0.03 | 39 | 1003.3 |
| 20260507184854 | 65 | 266 | 4.3 | 10.4 | 0.00 | 0.24 | 0.03 | 40 | 1003.2 |
| 20260507184609 | 64 | 282 | 3.5 | 10.4 | 0.00 | 0.24 | 0.03 | 42 | 1003.4 |
| 20260507183843 | 64 | 328 | 4.3 | 10.4 | 0.00 | 0.24 | 0.03 | 42 | 1003.4 |
| 20260507183336 | 65 | 311 | 5.2 | 13.9 | 0.00 | 0.24 | 0.03 | 43 | 1003.4 |
| 20260507183317 | 64 | 297 | 5.2 | 13.9 | 0.00 | 0.24 | 0.03 | 42 | 1003.5 |
| 20260507182324 | 64 | 216 | 5.2 | 15.6 | 0.00 | 0.24 | 0.03 | 43 | 1003.5 |
| 20260507181818 | 63 | 301 | 5.2 | 15.6 | 0.00 | 0.24 | 0.03 | 42 | 1003.5 |
| 20260507181313 | 64 | 305 | 4.3 | 11.3 | 0.00 | 0.24 | 0.03 | 40 | 1003.5 |
| 20260507180806 | 64 | 257 | 4.3 | 10.4 | 0.00 | 0.24 | 0.03 | 43 | 1003.5 |
| 20260507180302 | 64 | 300 | 6.1 | 12.2 | 0.00 | 0.24 | 0.03 | 42 | 1003.5 |
| 20260507175754 | 64 | 227 | 6.1 | 12.2 | 0.00 | 0.24 | 0.03 | 42 | 1003.6 |
| 20260507175508 | 64 | 278 | 4.3 | 10.4 | 0.00 | 0.24 | 0.03 | 44 | 1003.6 |
| 20260507174742 | 63 | 292 | 5.2 | 13.0 | 0.00 | 0.24 | 0.03 | 46 | 1003.7 |
| 20260507174238 | 63 | 240 | 6.1 | 13.0 | 0.00 | 0.24 | 0.03 | 45 | 1003.7 |
| 20260507173731 | 63 | 216 | 7.0 | 15.6 | 0.00 | 0.24 | 0.03 | 45 | 1003.7 |
| 20260507173224 | 63 | 211 | 6.1 | 15.6 | 0.00 | 0.24 | 0.03 | 45 | 1003.7 |
| 20260507172719 | 63 | 232 | 5.2 | 13.0 | 0.00 | 0.24 | 0.03 | 46 | 1003.8 |
| 20260507172213 | 62 | 272 | 5.2 | 13.0 | 0.00 | 0.24 | 0.03 | 50 | 1003.8 |
| 20260507171706 | 62 | 269 | 5.2 | 12.2 | 0.00 | 0.24 | 0.03 | 50 | 1003.9 |
| 20260507171200 | 62 | 241 | 7.0 | 14.8 | 0.00 | 0.24 | 0.03 | 50 | 1003.8 |
| 20260507170654 | 62 | 282 | 6.1 | 14.8 | 0.00 | 0.24 | 0.03 | 51 | 1004.0 |
| 20260507170148 | 60 | 296 | 4.3 | 8.7 | 0.00 | 0.24 | 0.03 | 59 | 1003.9 |
| 20260507165642 | 59 | 198 | 3.5 | 10.4 | 0.00 | 0.24 | 0.03 | 68 | 1004.1 |
| 20260507165136 | 58 | 223 | 3.5 | 10.4 | 0.00 | 0.24 | 0.03 | 68 | 1004.1 |
| 20260507164846 | 58 | 178 | 2.6 | 7.8 | 0.00 | 0.24 | 0.03 | 72 | 1004.2 |
| 20260507164124 | 57 | 186 | 2.6 | 9.6 | 0.00 | 0.24 | 0.03 | 73 | 1004.3 |
| 20260507163620 | 56 | 161 | 3.5 | 9.6 | 0.00 | 0.24 | 0.03 | 75 | 1004.4 |
| 20260507163118 | 55 | 184 | 4.3 | 12.2 | 0.00 | 0.24 | 0.03 | 74 | 1004.4 |
| 20260507162835 | 55 | 190 | 4.3 | 12.2 | 0.00 | 0.24 | 0.03 | 72 | 1004.5 |
| 20260507162117 | 55 | 215 | 4.3 | 11.3 | 0.00 | 0.24 | 0.03 | 74 | 1004.5 |
| 20260507161618 | 54 | 181 | 5.2 | 11.3 | 0.00 | 0.24 | 0.03 | 75 | 1004.5 |
| 20260507161334 | 54 | 180 | 4.3 | 9.6 | 0.00 | 0.24 | 0.03 | 74 | 1004.7 |
| 20260507160617 | 54 | 209 | 3.5 | 9.6 | 0.00 | 0.24 | 0.03 | 74 | 1004.8 |
| 20260507160116 | 54 | 172 | 4.3 | 13.9 | 0.00 | 0.24 | 0.03 | 74 | 1004.9 |
| 20260507155617 | 55 | 209 | 5.2 | 13.9 | 0.00 | 0.24 | 0.03 | 73 | 1004.9 |
| 20260507155338 | 55 | 152 | 5.2 | 11.3 | 0.00 | 0.24 | 0.03 | 72 | 1005.1 |
| 20260507154618 | 56 | 168 | 4.3 | 11.3 | 0.00 | 0.24 | 0.03 | 71 | 1005.0 |
| 20260507154118 | 56 | 169 | 4.3 | 10.4 | 0.00 | 0.24 | 0.03 | 72 | 1004.9 |
| 20260507153615 | 56 | 168 | 5.2 | 13.9 | 0.00 | 0.24 | 0.03 | 73 | 1005.0 |
| 20260507153341 | 56 | 179 | 6.1 | 13.9 | 0.00 | 0.24 | 0.03 | 74 | 1005.1 |
| 20260507152836 | 56 | 184 | 6.1 | 13.0 | 0.00 | 0.24 | 0.03 | 76 | 1005.2 |
| 20260507152114 | 56 | 157 | 5.2 | 13.0 | 0.00 | 0.24 | 0.03 | 75 | 1005.2 |
| 20260507151615 | 56 | 154 | 4.3 | 10.4 | 0.00 | 0.24 | 0.03 | 77 | 1005.1 |
| 20260507151115 | 56 | 155 | 3.5 | 8.7 | 0.00 | 0.24 | 0.03 | 77 | 1005.2 |
| 20260507150609 | 57 | 175 | 3.5 | 8.7 | 0.00 | 0.24 | 0.03 | 75 | 1005.2 |
| 20260507145557 | 57 | 153 | 4.3 | 9.6 | 0.00 | 0.24 | 0.03 | 76 | 1005.2 |
| 20260507145051 | 58 | 149 | 4.3 | 8.7 | 0.00 | 0.24 | 0.03 | 75 | 1005.1 |
| 20260507144546 | 57 | 188 | 3.5 | 8.7 | 0.00 | 0.24 | 0.03 | 75 | 1005.1 |
| 20260507144039 | 57 | 209 | 3.5 | 7.8 | 0.00 | 0.24 | 0.03 | 77 | 1005.0 |
| 20260507143532 | 57 | 148 | 3.5 | 7.0 | 0.00 | 0.24 | 0.03 | 78 | 1005.1 |
| 20260507143026 | 57 | 191 | 2.6 | 6.1 | 0.00 | 0.24 | 0.03 | 77 | 1005.2 |
| 20260507142520 | 56 | 194 | 2.6 | 6.1 | 0.00 | 0.24 | 0.03 | 78 | 1005.2 |
| 20260507142015 | 56 | 161 | 2.6 | 7.0 | 0.00 | 0.24 | 0.03 | 78 | 1005.3 |
| 20260507141509 | 56 | 141 | 2.6 | 7.0 | 0.00 | 0.24 | 0.03 | 77 | 1005.4 |
| 20260507141002 | 56 | 185 | 2.6 | 7.0 | 0.00 | 0.24 | 0.03 | 78 | 1005.4 |
| 20260507140940 | 56 | 193 | 2.6 | 7.0 | 0.00 | 0.24 | 0.03 | 79 | 1005.6 |
| 20260507135951 | 56 | 180 | 3.5 | 7.8 | 0.00 | 0.24 | 0.03 | 78 | 1005.5 |
| 20260507135710 | 56 | 192 | 3.5 | 7.8 | 0.00 | 0.24 | 0.03 | 78 | 1005.5 |
| 20260507134949 | 56 | 217 | 3.5 | 7.8 | 0.00 | 0.24 | 0.03 | 77 | 1005.6 |
| 20260507134449 | 56 | 189 | 3.5 | 7.8 | 0.00 | 0.24 | 0.03 | 79 | 1005.6 |
| 20260507133948 | 56 | 186 | 1.7 | 6.1 | 0.00 | 0.24 | 0.03 | 78 | 1005.5 |
| 20260507133447 | 57 | 192 | 0.9 | 5.2 | 0.00 | 0.24 | 0.03 | 77 | 1005.5 |
| 20260507132947 | 56 | 271 | 0.9 | 6.1 | 0.00 | 0.24 | 0.03 | 74 | 1005.7 |
| 20260507132446 | 56 | 229 | 1.7 | 7.8 | 0.00 | 0.24 | 0.03 | 73 | 1005.7 |
| 20260507131947 | 56 | 249 | 1.7 | 7.8 | 0.00 | 0.24 | 0.03 | 74 | 1005.7 |
| 20260507131447 | 55 | 255 | 0.0 | 3.5 | 0.00 | 0.24 | 0.03 | 75 | 1005.7 |
| 20260507130944 | 55 | 271 | 0.9 | 5.2 | 0.00 | 0.24 | 0.03 | 76 | 1005.7 |
| 20260507130708 | 55 | 268 | 1.7 | 5.2 | 0.00 | 0.24 | 0.03 | 77 | 1005.8 |
| 20260507125944 | 54 | 285 | 0.9 | 6.1 | 0.00 | 0.24 | 0.03 | 77 | 1005.7 |
| 20260507125444 | 54 | 265 | 1.7 | 6.1 | 0.00 | 0.24 | 0.03 | 78 | 1005.8 |
| 20260507124944 | 54 | 279 | 2.6 | 7.8 | 0.00 | 0.24 | 0.03 | 78 | 1005.8 |
| 20260507124445 | 54 | 275 | 1.7 | 7.8 | 0.00 | 0.24 | 0.03 | 79 | 1005.9 |
| 20260507123944 | 53 | 275 | 0.9 | 6.1 | 0.00 | 0.24 | 0.03 | 80 | 1005.9 |
| 20260507123446 | 53 | 275 | 1.7 | 6.1 | 0.00 | 0.24 | 0.03 | 79 | 1005.9 |
| 20260507122939 | 53 | 318 | 1.7 | 7.0 | 0.00 | 0.24 | 0.03 | 79 | 1006.0 |
| 20260507122438 | 52 | 322 | 1.7 | 7.0 | 0.00 | 0.24 | 0.03 | 80 | 1005.9 |
| 20260507121939 | 52 | 257 | 1.7 | 7.0 | 0.00 | 0.24 | 0.03 | 81 | 1005.9 |
| 20260507121440 | 51 | 331 | 1.7 | 7.0 | 0.00 | 0.24 | 0.03 | 81 | 1005.8 |
| 20260507121421 | 51 | 319 | 1.7 | 7.8 | 0.00 | 0.24 | 0.03 | 82 | 1005.9 |
| 20260507120703 | 50 | 337 | 0.9 | 7.8 | 0.00 | 0.24 | 0.03 | 84 | 1005.9 |
| 20260507115938 | 50 | 325 | 0.0 | 3.5 | 0.00 | 0.24 | 0.03 | 86 | 1005.9 |
| 20260507115438 | 50 | 331 | 0.0 | 2.6 | 0.00 | 0.24 | 0.03 | 87 | 1006.0 |
| 20260507114939 | 50 | 340 | 0.0 | 2.6 | 0.00 | 0.24 | 0.03 | 87 | 1006.0 |
| 20260507114700 | 50 | 340 | 0.0 | 3.5 | 0.00 | 0.24 | 0.03 | 88 | 1005.9 |
| 20260507113936 | 50 | 342 | 0.0 | 3.5 | 0.00 | 0.24 | 0.03 | 88 | 1005.8 |
| 20260507113655 | 49 | 340 | 0.0 | 3.5 | 0.00 | 0.24 | 0.03 | 88 | 1005.8 |
| 20260507112937 | 49 | 340 | 0.0 | 2.6 | 0.00 | 0.24 | 0.03 | 88 | 1005.8 |
| 20260507112656 | 49 | 340 | 0.0 | 2.6 | 0.00 | 0.24 | 0.03 | 89 | 1005.8 |
| 20260507112200 | 49 | 340 | 0.0 | 1.7 | 0.00 | 0.24 | 0.03 | 89 | 1005.9 |
| 20260507111434 | 49 | 340 | 0.0 | 0.0 | 0.00 | 0.24 | 0.03 | 89 | 1006.0 |
| 20260507110936 | 48 | 340 | 0.0 | 0.0 | 0.00 | 0.24 | 0.03 | 89 | 1005.9 |
| 20260507110434 | 48 | 340 | 0.0 | 0.0 | 0.00 | 0.24 | 0.03 | 89 | 1005.9 |
| 20260507105934 | 48 | 340 | 0.0 | 2.6 | 0.00 | 0.24 | 0.03 | 89 | 1006.1 |
| 20260507105430 | 48 | 340 | 0.0 | 3.5 | 0.00 | 0.24 | 0.03 | 90 | 1006.1 |
| 20260507105157 | 48 | 341 | 0.0 | 3.5 | 0.00 | 0.24 | 0.03 | 90 | 1005.7 |
| 20260507104431 | 48 | 345 | 0.0 | 1.7 | 0.00 | 0.24 | 0.03 | 90 | 1005.8 |
| 20260507104154 | 48 | 344 | 0.0 | 0.0 | 0.00 | 0.24 | 0.03 | 90 | 1006.0 |
| 20260507103430 | 48 | 344 | 0.0 | 0.0 | 0.00 | 0.24 | 0.03 | 90 | 1006.5 |
| 20260507102930 | 48 | 344 | 0.0 | 0.0 | 0.00 | 0.24 | 0.03 | 90 | 1006.3 |
| 20260507102430 | 48 | 344 | 0.0 | 0.9 | 0.00 | 0.24 | 0.03 | 90 | 1006.1 |
| 20260507101930 | 48 | 344 | 0.0 | 2.6 | 0.00 | 0.24 | 0.03 | 90 | 1006.2 |
| 20260507101430 | 48 | 344 | 0.0 | 3.5 | 0.00 | 0.24 | 0.03 | 90 | 1006.2 |
| 20260507100926 | 48 | 344 | 0.0 | 3.5 | 0.00 | 0.24 | 0.03 | 90 | 1005.8 |
| 20260507100426 | 48 | 344 | 0.0 | 2.6 | 0.00 | 0.24 | 0.03 | 90 | 1005.8 |
| 20260507095926 | 48 | 344 | 0.0 | 0.0 | 0.00 | 0.24 | 0.03 | 90 | 1006.0 |
| 20260507095427 | 48 | 344 | 0.0 | 0.0 | 0.00 | 0.24 | 0.03 | 90 | 1005.9 |
| 20260507094926 | 48 | 344 | 0.0 | 0.9 | 0.00 | 0.24 | 0.03 | 91 | 1006.1 |
| 20260507094427 | 48 | 344 | 0.0 | 2.6 | 0.00 | 0.24 | 0.03 | 91 | 1005.8 |
| 20260507093926 | 49 | 344 | 0.0 | 2.6 | 0.00 | 0.24 | 0.03 | 91 | 1005.2 |
| 20260507093648 | 49 | 344 | 0.9 | 2.6 | 0.00 | 0.24 | 0.03 | 91 | 1005.4 |
| 20260507092927 | 49 | 345 | 0.0 | 2.6 | 0.00 | 0.24 | 0.03 | 91 | 1005.7 |
| 20260507092422 | 49 | 345 | 0.0 | 3.5 | 0.00 | 0.24 | 0.03 | 91 | 1005.6 |
| 20260507091922 | 49 | 345 | 0.9 | 4.3 | 0.00 | 0.24 | 0.03 | 91 | 1005.4 |
| 20260507091422 | 49 | 345 | 0.9 | 4.3 | 0.00 | 0.24 | 0.03 | 91 | 1005.1 |
| 20260507091409 | 49 | 344 | 0.9 | 4.3 | 0.00 | 0.24 | 0.03 | 91 | 1005.1 |
| 20260507090424 | 49 | 344 | 0.9 | 4.3 | 0.00 | 0.24 | 0.03 | 91 | 1005.5 |
| 20260507085923 | 49 | 328 | 0.9 | 7.0 | 0.00 | 0.24 | 0.03 | 91 | 1005.3 |
| 20260507085422 | 49 | 325 | 0.9 | 7.8 | 0.00 | 0.24 | 0.03 | 91 | 1005.4 |
| 20260507084922 | 49 | 335 | 0.9 | 7.8 | 0.00 | 0.24 | 0.03 | 92 | 1005.3 |
| 20260507084422 | 49 | 346 | 1.7 | 7.8 | 0.00 | 0.24 | 0.03 | 92 | 1005.4 |
| 20260507083924 | 49 | 347 | 1.7 | 7.8 | 0.00 | 0.24 | 0.03 | 92 | 1005.6 |
| 20260507083424 | 49 | 331 | 1.7 | 7.0 | 0.00 | 0.24 | 0.03 | 93 | 1005.8 |
| 20260507082922 | 49 | 309 | 0.9 | 6.1 | 0.00 | 0.24 | 0.03 | 93 | 1005.7 |
| 20260507082422 | 50 | 328 | 0.9 | 4.3 | 0.00 | 0.24 | 0.03 | 94 | 1005.5 |
| 20260507081922 | 50 | 336 | 0.9 | 3.5 | 0.00 | 0.24 | 0.03 | 94 | 1005.2 |
| 20260507081423 | 50 | 338 | 0.0 | 3.5 | 0.00 | 0.24 | 0.03 | 94 | 1005.2 |
| 20260507080922 | 50 | 338 | 0.0 | 4.3 | 0.00 | 0.24 | 0.03 | 94 | 1005.0 |
| 20260507080422 | 50 | 338 | 0.9 | 4.3 | 0.00 | 0.24 | 0.03 | 94 | 1004.8 |
| 20260507075922 | 50 | 345 | 0.9 | 4.3 | 0.00 | 0.24 | 0.03 | 95 | 1004.8 |
| 20260507075417 | 50 | 339 | 0.0 | 2.6 | 0.00 | 0.24 | 0.03 | 95 | 1004.9 |
| 20260507074911 | 50 | 339 | 0.0 | 1.7 | 0.00 | 0.24 | 0.03 | 95 | 1004.9 |
| 20260507074404 | 50 | 339 | 0.0 | 0.0 | 0.00 | 0.24 | 0.03 | 95 | 1005.4 |
| 20260507074128 | 50 | 339 | 0.0 | 1.7 | 0.00 | 0.24 | 0.03 | 95 | 1005.3 |
| 20260507073353 | 50 | 339 | 0.0 | 3.5 | 0.00 | 0.24 | 0.03 | 95 | 1005.0 |
| 20260507072846 | 51 | 339 | 0.0 | 3.5 | 0.00 | 0.24 | 0.03 | 95 | 1005.0 |
| 20260507072604 | 51 | 339 | 0.0 | 0.9 | 0.00 | 0.24 | 0.03 | 95 | 1004.9 |
| 20260507071834 | 51 | 339 | 0.0 | 0.9 | 0.00 | 0.24 | 0.03 | 95 | 1004.7 |
| 20260507071329 | 51 | 339 | 0.0 | 0.0 | 0.00 | 0.24 | 0.03 | 95 | 1004.5 |
| 20260507070823 | 51 | 339 | 0.0 | 0.9 | 0.00 | 0.24 | 0.03 | 95 | 1004.4 |
| 20260507070317 | 51 | 339 | 0.0 | 0.9 | 0.00 | 0.24 | 0.03 | 95 | 1004.5 |
| 20260507065811 | 51 | 339 | 0.0 | 0.9 | 0.00 | 0.24 | 0.03 | 95 | 1004.5 |
| 20260507065306 | 51 | 339 | 0.0 | 0.9 | 0.00 | 0.24 | 0.03 | 95 | 1004.4 |
| 20260507064804 | 51 | 339 | 0.0 | 0.0 | 0.00 | 0.24 | 0.03 | 95 | 1004.5 |
| 20260507064305 | 51 | 339 | 0.0 | 0.0 | 0.00 | 0.24 | 0.03 | 95 | 1004.4 |
| 20260507063804 | 51 | 339 | 0.0 | 0.0 | 0.00 | 0.24 | 0.03 | 95 | 1004.4 |
| 20260507063302 | 51 | 339 | 0.0 | 0.0 | 0.01 | 0.24 | 0.03 | 95 | 1004.5 |
| 20260507062800 | 51 | 339 | 0.0 | 0.0 | 0.01 | 0.24 | 0.03 | 95 | 1004.4 |
| 20260507062301 | 51 | 339 | 0.0 | 1.7 | 0.01 | 0.24 | 0.03 | 95 | 1004.5 |
| 20260507061758 | 51 | 339 | 0.0 | 1.7 | 0.01 | 0.24 | 0.03 | 95 | 1004.3 |
| 20260507061258 | 51 | 339 | 0.0 | 2.6 | 0.01 | 0.24 | 0.03 | 95 | 1004.2 |
| 20260507061026 | 51 | 339 | 0.0 | 2.6 | 0.01 | 0.24 | 0.03 | 95 | 1004.3 |
| 20260507060256 | 52 | 339 | 0.0 | 2.6 | 0.01 | 0.24 | 0.03 | 95 | 1004.4 |
| 20260507055755 | 52 | 339 | 0.0 | 2.6 | 0.01 | 0.24 | 0.03 | 95 | 1004.4 |
| 20260507055254 | 52 | 340 | 0.9 | 5.2 | 0.01 | 0.24 | 0.03 | 95 | 1004.3 |
| 20260507054755 | 52 | 339 | 1.7 | 7.0 | 0.02 | 0.24 | 0.03 | 95 | 1004.1 |
| 20260507054254 | 52 | 355 | 2.6 | 7.8 | 0.02 | 0.24 | 0.03 | 95 | 1004.1 |
| 20260507053755 | 53 | 327 | 1.7 | 7.8 | 0.02 | 0.24 | 0.03 | 95 | 1004.0 |
| 20260507053254 | 53 | 323 | 1.7 | 7.8 | 0.01 | 0.23 | 0.02 | 96 | 1004.0 |
| 20260507052754 | 53 | 17 | 1.7 | 7.0 | 0.01 | 0.23 | 0.02 | 95 | 1003.9 |
| 20260507052253 | 54 | 5 | 1.7 | 7.0 | 0.02 | 0.23 | 0.02 | 96 | 1004.0 |
| 20260507051748 | 54 | 14 | 0.9 | 3.5 | 0.02 | 0.23 | 0.02 | 96 | 1004.0 |
| 20260507051242 | 54 | 24 | 0.9 | 3.5 | 0.02 | 0.23 | 0.02 | 96 | 1004.2 |
| 20260507051003 | 54 | 235 | 0.9 | 6.1 | 0.02 | 0.23 | 0.02 | 96 | 1003.9 |
| 20260507050230 | 54 | 234 | 0.9 | 6.1 | 0.02 | 0.23 | 0.02 | 96 | 1003.8 |
| 20260507045723 | 54 | 244 | 0.9 | 7.0 | 0.03 | 0.23 | 0.02 | 96 | 1003.8 |
| 20260507045439 | 54 | 281 | 0.0 | 7.0 | 0.03 | 0.23 | 0.02 | 96 | 1003.7 |
| 20260507044710 | 54 | 249 | 0.0 | 2.6 | 0.02 | 0.22 | 0.01 | 96 | 1003.6 |
| 20260507044203 | 54 | 249 | 0.0 | 1.7 | 0.02 | 0.22 | 0.01 | 96 | 1003.3 |
| 20260507043657 | 54 | 249 | 0.0 | 2.6 | 0.02 | 0.22 | 0.01 | 96 | 1003.3 |
| 20260507043153 | 54 | 248 | 0.0 | 2.6 | 0.03 | 0.22 | 0.01 | 96 | 1003.4 |
| 20260507042645 | 53 | 248 | 0.0 | 1.7 | 0.02 | 0.21 | 0.01 | 96 | 1003.1 |
| 20260507042139 | 53 | 248 | 0.0 | 4.3 | 0.02 | 0.21 | 0.00 | 96 | 1003.2 |
| 20260507041633 | 53 | 248 | 0.0 | 4.3 | 0.02 | 0.21 | 0.00 | 97 | 1003.2 |
| 20260507041127 | 53 | 243 | 0.0 | 1.7 | 0.02 | 0.21 | 0.00 | 96 | 1003.2 |
| 20260507040621 | 52 | 243 | 0.0 | 3.5 | 0.02 | 0.21 | 0.00 | 96 | 1003.4 |
| 20260507040337 | 52 | 231 | 0.9 | 4.3 | 0.02 | 0.21 | 0.00 | 96 | 1003.6 |
| 20260507035810 | 51 | 240 | 2.6 | 7.8 | 0.01 | 0.20 | 0.20 | 96 | 1003.5 |
| 20260507035654 | 52 | 214 | 1.7 | 4.3 | 0.01 | 0.20 | 0.20 | 96 | 1003.4 |
| 20260507034557 | 51 | 239 | 2.6 | 7.0 | 0.01 | 0.20 | 0.20 | 96 | 1003.6 |
| 20260507034051 | 51 | 220 | 2.6 | 7.0 | 0.01 | 0.20 | 0.20 | 96 | 1003.3 |
| 20260507033547 | 51 | 258 | 3.5 | 9.6 | 0.01 | 0.20 | 0.20 | 96 | 1003.3 |
| 20260507033039 | 50 | 210 | 4.3 | 10.4 | 0.00 | 0.19 | 0.19 | 96 | 1003.4 |
| 20260507032534 | 50 | 267 | 4.3 | 10.4 | 0.00 | 0.19 | 0.19 | 96 | 1003.4 |
| 20260507032255 | 50 | 285 | 3.5 | 7.8 | 0.00 | 0.19 | 0.19 | 96 | 1003.1 |
| 20260507031740 | 50 | 190 | 4.3 | 9.6 | 0.00 | 0.19 | 0.19 | 96 | 1003.1 |
| 20260507031015 | 50 | 238 | 3.5 | 10.4 | 0.00 | 0.19 | 0.19 | 96 | 1003.1 |
| 20260507030510 | 50 | 205 | 3.5 | 12.2 | 0.00 | 0.19 | 0.19 | 95 | 1003.1 |
| 20260507030004 | 50 | 186 | 3.5 | 12.2 | 0.00 | 0.19 | 0.19 | 96 | 1003.1 |
| 20260507025457 | 50 | 186 | 3.5 | 8.7 | 0.00 | 0.19 | 0.19 | 96 | 1003.1 |